Home   Weather   Mississauga   Past weeks

Flag for Canada Past Weather in Mississauga, Ontario, Canada — Yesterday and Last 2 Weeks

Now
39 °F

Fog.


Feels Like: 37 °F
Forecast: 39 / 40 °F
Wind: 3 mph from East

Location: Toronto Pearson International Airport

Current Time: Jan 22, 2017 at 1:25:27 am

Latest Report: Jan 22, 2017 at 12:14 am


Visibility: 0 mi

Pressure: 29.70 "Hg

Humidity: 100%

Dew Point: 39 °F

Location of MississaugaLocation

Past Weather in Mississauga — Graph

°F

Mississauga Temperature Yesterday

Maximum temperature yesterday: 43 °F (at 2:00 pm)
Minimum temperature yesterday: 36 °F (at 1:49 am)
Average temperature yesterday: 39 °F

High & Low Weather Summary for the Past Weeks

 TemperatureHumidityPressure
High48 °F (Jan 12, 3:44 am)100% (Jan 10, 8:40 am)30.81 "Hg (Jan 10, 8:40 am)
Low7 °F (Jan 7, 5:00 am)37% (Jan 8, 4:00 pm)29.46 "Hg (Jan 11, 12:00 am)
Average30 °F79%30.10 "Hg
* Reported Jan 7 12:00 am — Jan 22 12:14 am, Mississauga, Weather by CustomWeather, © 2017

Note: Actual official high and low records may vary slightly from our data, if they occured in-between our weather recording intervals... More about our weather records

Advertising

Mississauga Weather History for the Previous 24 Hours

Scroll right to see more
 ConditionsComfort  
Time TempWeatherWind HumidityBarometerVisibility
12:14 am
Sun, Jan 22
39 °FFog.3 mph100%29.70 "Hg0 mi
12:00 am39 °FFog.5 mph100%29.71 "Hg0 mi
11:48 pm
Sat, Jan 21
39 °FFog.5 mph100%29.71 "Hg0 mi
11:37 pm41 °FFog.3 mph93%29.72 "Hg1 mi
11:07 pm41 °FQuite cool.5 mph93%29.71 "Hg1 mi
10:48 pm39 °FFog.2 mph100%29.72 "Hg1 mi
10:06 pm41 °FFog.3 mph93%29.72 "Hg3 mi
9:28 pm41 °FFog.5 mph93%29.73 "Hg3 mi
9:00 pm41 °FFog.2 mph93%29.73 "Hg3 mi
8:50 pm39 °FChilly.5 mph100%29.73 "Hg2 mi
8:40 pm39 °FChilly.3 mph100%29.73 "Hg1 mi
8:00 pm39 °FFog.No wind100%29.75 "Hg1 mi
7:00 pm41 °FFog.3 mph93%29.74 "Hg1 mi
6:28 pm41 °FFog.5 mph93%29.73 "Hg2 mi
6:00 pm41 °FFog.6 mph93%29.72 "Hg4 mi
5:24 pm41 °FFog.5 mph93%29.72 "Hg4 mi
4:41 pm41 °FFog.3 mph93%29.72 "Hg1 mi
4:23 pm41 °FFog.3 mph100%29.73 "Hg1 mi
4:00 pm41 °FFog.3 mph100%29.72 "Hg2 mi
3:00 pm43 °FFog.5 mph93%29.73 "Hg5 mi
2:00 pm43 °FFog.3 mph93%29.72 "Hg5 mi
1:00 pm41 °FFog.6 mph93%29.73 "Hg5 mi
12:00 pm41 °FFog.2 mph93%29.77 "Hg5 mi
11:00 am39 °FFog.5 mph93%29.78 "Hg5 mi
10:34 am37 °FFog.2 mph100%29.80 "Hg5 mi
10:00 am37 °FFog.No wind100%29.80 "Hg5 mi
9:38 am37 °FFog.7 mph93%29.79 "Hg4 mi
9:00 am37 °FFog.7 mph93%29.80 "Hg4 mi
8:00 am36 °FFog.7 mph100%29.80 "Hg5 mi
7:18 am36 °FFog.5 mph100%29.80 "Hg5 mi
7:00 am37 °FFog.3 mph93%29.80 "Hg5 mi
6:44 am36 °FFog.2 mph100%29.80 "Hg5 mi
6:32 am36 °FFog.5 mph100%29.80 "Hg3 mi
6:22 am36 °FFog.3 mph100%29.80 "Hg1 mi
6:00 am36 °FFog.7 mph100%29.80 "Hg0 mi
5:03 am36 °FFog.6 mph100%29.78 "Hg0 mi
4:00 am37 °FMostly cloudy.5 mph100%29.79 "Hg8 mi
3:00 am37 °FMostly cloudy.3 mph100%29.80 "Hg8 mi
2:00 am37 °FFog.3 mph93%29.78 "Hg3 mi
1:49 am36 °FDrizzle. Fog.3 mph100%29.78 "Hg2 mi
1:00 am37 °FDrizzle. Fog.5 mph100%29.78 "Hg0 mi
Weather by CustomWeather, © 2017

See weather overviewHow to use our weather pages